Weather in Cannes

France     43°33′14″N   7°01′17″E
temp.,
°C
wind,
m/s
gust,
m/s
humid.,
%
clouds,
%
prec.,
mm/h
press.,
hPa
HPBL,
m
14 may, fri
fri1423:00+16w4760100 0.0 1006272
02:00+14w686492 0.0 1007267
05:00+14w346239 0.0 1007145
08:00+14w456892 0.0 1007310
11:00+15e23635 0.0 1008452
14:00+15e226517 0.1 1008515
17:00+15ene557132 0.9 1007432
20:00+14ene678429 1.8 1009564
15 may, sat
sat1523:00+14ene228074 0.0 1011300
02:00+14ese0178100 0.0 1011219
05:00+13wnw228399 0.0 1011143
08:00+13wsw2278100 0.0 1012184
11:00+16sw3653100 0.0 1011536
14:00+19wsw101249100 0.0 1010689
17:00+18wsw91354100 0.0 1010556
20:00+17wsw8136182 0.0 1010480
16 may, sun
sun1623:00+15wsw91174100 0.0 1010390
02:00+15wsw81176100 0.0 1009266
05:00+15w5774100 0.0 1007154
08:00+15w3469100 0.0 1008206
11:00+17ese0371100 0.0 1009155
14:00+20nw1655100 0.0 1007323
17:00+21wsw101244100 0.0 1007490
20:00+19wsw101254100 0.0 1007268
17 may, mon
mon1723:00+17wsw8105845 0.0 1008173
02:00+16w9116438 0.0 1008237
05:00+15wsw1013715 0.0 1008333
08:00+15wsw101265100 0.0 1009341
11:00+20wsw11133499 0.0 1009634
14:00+22w11142896 0.0 1009656
17:00+22w1318323 0.0 1009654
20:00+19w1116420 0.0 1010625
18 may, tue
tue1823:00+17w1216480 0.0 1012551
02:00+15w1014566 0.0 1011422
05:00+13wnw71060100 0.0 1012329
08:00+14wnw455451 0.0 1014210
11:00+17ese324453 0.0 1016384
14:00+17ese566882 0.0 1017372
17:00+17ene3363100 0.0 1017268
20:00+17e226638 0.0 1017111